STARLINK-2652

decayed
NORAD ID: 48451 Int'l Des: 2021-040 Owner: SPXS Country: US Constellation: starlink
LEOCIRCULAR
グループ

STARLINK-2652について

説明を読み込み中...

高度履歴

Altitude vs Time

uPlot chart will show altitude changes over time

軌道要素

1 48451U 21040Z 24230.16417484 .23892230 12077-4 36555-2 0 9991
2 48451 53.0328 143.3383 0006489 202.8685 311.5056 16.33320550183100
Epoch: Aug 17, 2024 • Age: 9536 hours

現在のステータス

Position data unavailable
打ち上げ日 May 9, 2021
運用期間 4.3 years
落下予定日 Aug 17, 2024
タイプ internet

技術仕様

分類 Payload
質量 260.00 kg
乾燥質量 248.00 kg
総質量 260.00 kg
長さ 0.20 m
直径 2.80 m
スパン 9.00 m
形状 Box + pan
製造者 SPXS
バスタイプ Starlink
フェーズステータス Reentered
所有者/国 SPXS/US

大規模コンステレーション

Loading constellations...